Temperature
20 20 21 21 18 17 18 19 19 19 19 19 18 18 17 17 17 17 17 17 17 17 17 17 17 17 17 17 17 17 17 17 17 17 17 17 17 17 17 17 17 17 17 18 18 17 17 17 17
21 21 21 20 17 17 18 19 19 19 19 19 19 18 17 17 17 17 17 17 17 17 17 17 17 17 17 17 17 17 17 17 17 17 17 17 17 17 17 17 17 17 17 17 17 17 17 17 17
21 21 21 17 17 18 19 19 19 19 19 19 18 18 17 17 17 17 17 17 17 17 17 17 17 17 17 17 16 16 16 16 17 17 17 17 17 17 17 17 17 17 17 17 17 17 17 17 17
21 21 20 17 18 19 19 19 19 19 19 19 18 17 17 17 17 17 17 17 17 17 17 17 17 16 16 16 16 16 16 16 16 16 16 17 17 17 17 17 17 17 17 17 17 17 17 17 17
21 21 17 17 19 19 19 20 20 19 19 18 18 17 17 17 17 17 17 17 17 17 17 17 16 16 16 16 16 16 16 16 16 16 16 16 16 16 16 16 17 17 17 17 16 17 17 17 17
22 18 17 18 19 19 19 20 20 19 19 18 18 17 17 18 17 17 17 17 17 17 17 17 16 16 16 16 16 16 16 16 16 16 16 16 16 16 16 16 16 16 16 16 16 16 16 16 16
20 17 17 18 18 19 20 20 20 19 19 19 19 17 17 18 17 17 17 17 17 17 17 17 16 16 16 16 16 16 16 16 16 16 16 16 16 16 16 16 16 16 16 16 16 16 16 16 16
21 17 18 18 19 19 20 20 20 20 19 19 19 18 17 18 17 17 17 17 17 17 17 17 16 16 16 16 16 16 16 16 16 16 16 16 16 16 16 16 16 16 16 16 16 16 16 16 16
21 17 18 19 19 20 20 20 20 20 19 19 19 19 19 18 18 17 17 17 17 17 17 17 17 16 16 16 16 16 16 16 16 16 16 16 16 16 16 16 16 16 16 16 16 16 16 16 16
21 17 19 20 19 20 20 20 20 20 19 19 19 19 18 18 18 18 17 17 17 17 17 17 17 16 16 16 16 16 16 16 16 16 16 16 16 16 16 16 16 16 16 16 16 16 16 16 16
20 19 20 20 21 21 21 20 20 20 19 19 19 19 18 18 18 18 18 17 17 17 17 17 17 17 16 16 16 16 16 16 16 16 16 16 16 16 16 16 16 16 16 16 16 16 16 16 16
20 20 21 21 21 21 21 20 20 20 20 20 20 19 19 18 18 18 18 18 17 17 17 17 17 17 16 16 16 16 16 16 16 16 16 16 16 16 16 16 15 15 15 15 16 15 15 15 15
20 20 21 21 21 21 21 20 20 20 20 20 20 19 19 19 18 18 18 18 18 17 17 17 17 17 16 16 16 16 16 16 16 16 16 15 15 15 15 15 15 15 15 15 15 15 15 15 15
21 21 21 21 21 21 20 20 20 20 20 20 19 19 19 19 19 18 18 18 18 18 17 17 17 17 16 16 16 16 16 16 16 16 16 15 15 15 15 15 15 15 15 15 15 15 15 15 15
21 20 20 20 21 21 21 19 19 20 20 19 19 19 19 19 19 19 18 18 18 18 17 17 17 17 16 16 16 16 16 16 16 16 15 15 15 15 15 15 15 15 15 15 15 15 15 15 15
20 19 19 20 20 20 20 19 19 20 20 19 19 19 19 19 19 18 18 18 18 18 18 17 17 17 16 16 16 16 16 16 16 15 15 15 15 15 15 15 15 15 15 15 15 15 15 15 15
18 18 19 19 20 20 19 18 19 19 19 18 19 19 19 19 19 18 18 18 18 18 18 17 17 17 16 16 16 16 16 15 15 15 15 15 15 15 15 15 15 15 15 15 15 15 15 14 14
19 18 19 19 19 19 18 18 18 19 18 18 19 19 19 19 19 19 18 18 18 18 18 17 17 17 16 16 16 16 15 15 15 15 15 15 15 15 15 15 15 15 15 15 15 14 14 14 14
19 19 18 19 19 19 18 18 18 18 18 18 18 18 19 19 19 19 19 18 18 18 18 17 17 17 16 16 16 16 15 15 15 15 15 15 15 15 15 15 15 15 15 15 14 14 14 14 14
19 19 18 19 20 19 18 18 18 17 17 18 18 18 19 19 19 19 19 18 18 18 18 17 17 17 16 16 16 16 15 15 15 15 15 15 15 15 15 15 15 14 14 14 14 14 14 14 14
19 18 19 19 19 19 18 18 18 17 18 18 18 18 19 19 19 19 19 18 18 18 18 17 17 17 16 16 16 15 15 15 15 15 15 15 15 15 14 14 14 14 14 14 14 14 14 14 14
19 20 19 19 18 17 18 17 17 16 16 17 17 18 18 19 19 19 19 18 18 18 18 17 17 17 16 16 16 16 15 15 15 15 15 15 15 15 14 14 14 14 14 14 14 14 14 14 14
20 20 19 19 18 17 17 17 16 16 17 17 17 17 18 19 19 19 19 19 18 18 18 17 17 16 16 16 16 15 15 15 15 15 15 15 15 15 14 14 14 14 14 14 14 14 14 14 13
20 19 18 16 16 17 17 17 16 15 16 17 17 18 18 19 19 19 19 18 18 18 18 17 17 16 16 16 16 15 15 15 15 15 15 15 15 15 14 14 14 14 14 14 14 14 14 14 14
19 17 16 17 16 16 17 16 16 17 17 17 17 18 18 19 19 19 19 18 18 18 18 17 17 17 16 16 16 15 15 15 15 15 15 15 15 15 14 14 14 14 14 14 14 14 14 14 14
18 17 17 17 16 16 16 16 17 17 18 18 18 18 18 19 19 19 19 18 18 18 18 17 17 17 16 16 16 16 15 15 15 15 15 15 15 15 15 14 14 14 14 14 14 14 14 14 14
18 17 17 16 16 16 16 16 17 18 17 17 17 18 18 18 19 19 19 18 18 18 18 17 17 17 16 16 16 16 15 15 15 15 15 15 15 15 15 14 14 14 14 14 14 14 14 14 14
18 16 15 16 16 16 16 16 16 17 17 16 16 17 18 18 18 19 18 18 18 18 18 17 17 17 17 16 16 16 15 15 15 15 15 15 15 15 15 14 14 14 14 14 14 14 14 14 14
17 17 15 14 15 15 16 16 17 17 16 16 16 17 18 18 18 18 18 18 18 18 17 17 17 17 16 16 16 16 15 15 15 15 15 15 15 15 14 14 14 14 14 14 14 14 14 14 14
18 17 15 16 15 14 15 16 18 16 16 17 17 17 18 18 18 18 18 18 18 17 17 17 17 16 16 16 16 16 15 15 15 15 15 15 15 15 14 14 14 14 14 14 14 14 14 14 14
Wind_Speed
2 3 3 4 6 6 4 3 1 2 3 3 4 6 6 4 2 1 2 1 0 1 3 3 4 5 6 7 8 8 9 8 8 8 8 9 8 9 9 10 10 10 10 10 10 11 11 11 11
1 2 4 5 6 5 3 3 3 2 4 4 5 5 5 4 2 1 1 1 1 1 2 3 4 5 6 7 7 8 9 8 8 9 9 9 8 9 9 10 10 10 11 11 11 12 12 12 11
2 3 4 5 5 4 2 1 3 4 4 2 4 4 3 2 1 1 1 1 1 2 2 2 5 6 6 7 7 7 8 8 8 9 9 9 8 8 9 10 10 10 10 10 11 12 11 11 12
3 5 5 7 7 2 2 2 3 4 4 5 4 4 3 2 0 2 1 2 2 2 2 3 4 5 6 6 7 7 7 7 8 9 9 9 8 8 8 9 9 9 10 10 11 11 11 12 12
4 5 7 5 4 3 1 1 2 4 3 4 4 4 2 4 3 4 3 2 3 2 2 3 4 4 5 6 6 7 7 7 8 9 9 9 9 9 9 8 9 9 10 10 11 11 11 12 12
5 5 6 4 3 2 2 2 4 5 4 3 3 3 1 2 2 2 3 3 2 2 3 4 4 4 4 5 5 6 7 7 8 9 9 9 9 9 9 8 9 9 9 10 11 11 12 11 12
5 5 5 4 2 2 1 2 4 4 3 2 3 3 1 1 0 2 3 3 3 3 3 4 5 5 4 4 5 5 6 7 7 8 8 8 9 9 9 9 9 9 9 10 11 11 11 11 11
5 5 4 3 3 1 0 2 3 4 3 3 3 4 2 2 2 4 4 4 3 3 3 3 4 5 5 5 5 6 6 7 7 8 9 9 9 10 9 9 9 9 9 10 10 11 11 11 11
4 6 3 3 4 2 1 3 2 3 5 3 2 2 2 5 6 5 4 3 3 2 2 2 2 3 3 4 5 6 7 8 8 8 9 9 9 9 8 9 9 9 10 10 11 11 12 12 11
5 5 3 3 4 4 2 3 3 4 3 2 3 4 5 6 6 5 3 2 1 1 1 1 1 1 2 3 5 6 6 7 7 7 8 8 8 8 8 9 10 10 10 11 11 11 11 10 9
4 4 2 1 3 4 3 2 2 6 1 3 4 5 5 4 4 3 2 2 2 1 0 0 0 1 2 2 4 4 5 6 6 6 6 7 7 7 7 7 8 9 9 9 10 10 9 9 8
4 2 3 2 2 3 3 3 3 2 3 3 6 6 6 5 4 3 3 2 2 2 1 1 1 2 2 3 3 3 4 4 4 4 5 5 4 4 5 5 6 6 6 6 7 6 8 9 9
4 2 3 3 4 3 5 3 2 1 1 6 7 7 6 5 3 2 2 2 2 2 1 1 2 2 2 3 2 3 3 3 3 4 4 5 4 3 4 4 5 6 6 5 5 6 7 7 7
3 4 3 3 3 2 5 2 2 0 4 7 7 5 4 4 4 3 2 2 2 2 2 2 3 2 3 2 2 2 3 3 3 4 4 5 5 4 3 4 4 5 5 6 6 6 5 5 6
4 5 6 4 2 1 4 4 1 1 6 6 5 4 3 3 3 3 3 3 3 3 3 3 3 3 3 2 2 3 3 3 3 3 4 4 5 5 4 3 3 4 6 7 7 7 6 5 5
5 5 3 4 2 1 5 2 4 2 6 5 4 3 3 2 2 2 2 2 3 3 4 3 3 4 3 3 3 3 3 3 3 3 4 4 5 5 5 3 3 4 6 6 5 4 5 5 5
5 2 1 4 2 2 3 3 4 2 6 5 4 4 3 2 2 2 2 3 3 4 4 3 3 4 3 3 3 4 4 4 3 4 4 4 5 5 5 3 3 5 5 4 4 4 4 4 4
2 2 0 2 2 2 1 3 4 0 4 5 4 3 3 4 5 3 3 3 4 4 4 4 4 3 3 3 3 3 4 3 3 3 4 4 5 5 5 4 4 4 4 4 4 5 4 3 4
5 4 2 3 2 1 1 4 4 2 2 3 4 4 4 6 4 2 3 3 4 4 4 4 4 3 3 2 2 2 2 2 2 3 4 4 4 4 4 3 3 3 3 3 4 4 4 3 2
5 3 2 2 1 2 1 4 4 2 3 4 6 6 6 4 2 3 3 4 4 4 4 3 3 3 3 2 2 1 2 1 1 2 3 3 3 3 3 3 2 3 3 4 3 3 3 1 1
3 5 5 3 1 2 2 5 4 3 2 1 2 4 4 5 6 5 5 4 4 4 4 4 3 3 3 3 3 3 3 3 2 2 2 2 2 2 3 3 3 2 3 3 2 3 3 2 0
3 5 5 3 2 2 1 3 6 4 3 2 2 3 4 4 5 5 6 6 6 5 4 4 4 3 3 3 3 3 2 1 1 0 0 1 2 2 2 3 3 3 2 2 2 2 2 3 1
5 2 3 2 3 1 1 1 7 3 3 5 5 4 4 4 6 7 7 7 6 5 5 4 4 3 2 3 3 3 2 1 0 1 1 2 2 2 1 2 2 2 2 2 2 2 2 2 2
5 6 6 5 4 2 3 3 6 3 5 5 4 4 4 4 5 5 5 5 4 4 4 4 3 2 2 2 3 3 3 2 1 1 0 1 1 1 1 1 1 2 2 2 2 2 2 1 2
5 6 3 4 3 5 3 3 7 6 5 5 5 5 4 3 4 5 6 6 6 6 5 4 4 3 2 2 2 3 3 3 3 2 2 1 0 1 1 1 1 1 2 2 2 2 1 1 1
4 8 7 4 4 4 2 4 6 4 3 3 2 3 3 3 4 5 7 7 7 6 6 5 5 3 3 3 2 2 2 2 2 2 2 2 2 2 2 1 1 2 1 1 2 1 1 1 1
5 4 6 6 2 2 5 6 6 2 2 1 1 2 2 3 3 5 6 6 6 7 6 6 5 4 3 3 3 2 2 2 2 1 1 1 1 1 1 1 1 1 1 1 1 1 1 1 1
4 7 5 5 4 3 5 4 4 4 3 1 1 2 2 2 2 4 5 5 5 6 5 5 5 4 3 3 3 2 2 2 2 1 1 1 1 1 1 1 1 1 1 1 1 1 1 1 0
3 4 4 4 5 5 3 6 5 6 5 5 4 4 4 3 3 4 3 3 4 4 4 4 4 3 3 3 2 2 1 1 1 1 2 2 1 1 1 1 1 1 1 1 1 1 1 1 0
4 5 6 5 4 4 4 7 5 4 4 4 4 3 2 3 3 4 4 4 4 4 4 4 4 4 3 3 3 3 2 1 1 1 2 1 1 1 2 2 1 1 0 1 1 1 1 1 1
Wind_Direction
46 77 81 60 56 56 50 14 26 52 56 40 52 72 85 75 73 105 289 341 64 344 341 14 50 71 76 75 74 73 75 76 73 74 78 84 90 89 89 86 82 80 77 74 80 90 97 99 100
70 83 59 60 76 75 23 354 62 75 137 134 71 67 70 63 70 98 317 325 79 40 31 30 63 78 79 77 77 78 77 79 78 77 77 81 86 88 85 86 82 80 76 74 78 84 90 94 94
77 56 74 65 78 112 120 5 106 85 91 92 68 54 68 57 66 182 250 158 78 53 51 53 77 80 80 80 77 82 78 76 79 79 78 81 83 86 86 87 84 82 81 79 80 82 85 88 89
71 45 55 68 75 68 146 155 129 109 63 49 81 61 42 5 121 165 125 111 89 57 47 65 78 81 83 81 76 78 79 75 77 76 75 77 76 79 83 87 88 84 81 80 81 82 82 83 86
60 69 64 64 55 21 30 111 95 86 69 49 74 83 22 355 69 109 113 107 98 57 43 63 79 84 86 88 80 73 73 71 76 73 71 71 74 74 74 83 87 86 84 80 79 80 80 80 80
54 65 81 84 59 15 7 54 91 83 89 82 84 89 8 2 74 106 108 101 93 73 51 47 63 78 85 91 86 79 72 76 76 71 69 67 70 72 71 73 80 85 86 83 78 77 78 79 80
92 83 97 111 89 50 68 73 99 105 96 113 122 98 356 341 119 110 96 87 70 58 51 39 41 49 61 80 78 73 68 69 70 69 68 63 63 65 64 65 72 78 80 79 76 76 77 77 78
111 97 83 89 106 78 130 97 99 110 111 111 112 130 195 230 127 96 82 68 56 42 38 33 34 44 44 46 60 61 62 62 64 65 64 59 56 59 59 59 62 66 69 71 70 71 72 74 78
81 80 110 164 151 154 129 100 71 80 97 79 75 151 175 124 104 91 72 46 41 37 20 19 25 29 39 41 51 52 55 56 57 56 57 52 47 47 52 54 59 63 62 63 64 69 69 70 72
76 103 168 188 165 151 129 119 127 89 80 75 59 59 91 107 115 120 121 121 102 332 339 12 1 16 37 50 51 46 50 52 57 56 53 51 50 48 52 51 54 59 59 58 60 65 69 66 63
89 126 142 110 140 131 121 108 110 122 145 190 163 142 120 120 130 140 156 168 192 217 262 208 237 63 64 55 57 50 49 53 56 55 59 61 55 49 48 46 45 48 54 54 55 59 63 66 65
88 79 108 106 117 115 120 118 99 136 212 168 151 143 137 136 151 164 172 174 155 143 188 189 102 75 63 68 65 55 52 50 49 50 64 72 65 55 50 50 44 49 54 58 57 64 71 69 64
76 71 66 87 84 97 91 88 115 55 73 104 115 123 142 155 166 179 163 148 141 148 163 147 109 91 75 72 63 65 56 56 57 57 63 81 82 68 60 55 53 52 56 63 65 70 72 71 66
92 72 50 45 66 73 94 61 82 305 112 113 122 142 166 179 178 155 146 148 161 161 155 133 123 118 103 85 77 72 66 61 63 64 74 90 91 83 74 65 57 54 60 67 74 77 76 71 68
79 59 25 13 38 50 92 19 286 195 126 130 145 161 177 200 181 180 184 170 164 156 146 140 140 109 99 88 86 89 84 77 69 66 84 97 101 97 89 78 66 62 71 78 80 73 75 73 64
55 51 23 329 19 57 104 274 290 129 138 156 175 185 197 224 209 205 187 160 143 134 133 139 135 112 103 95 85 81 82 75 63 67 81 90 99 103 93 85 76 79 79 81 83 77 74 67 62
36 60 352 323 353 76 113 244 294 131 152 175 190 200 202 227 239 221 191 164 145 145 136 129 112 112 110 95 82 74 70 63 58 67 77 84 92 98 95 88 83 88 83 79 90 76 85 81 71
191 162 241 282 310 85 113 268 302 170 171 190 196 209 206 213 232 212 181 152 139 138 128 121 107 107 99 84 74 59 53 43 45 53 67 80 86 96 98 90 85 91 89 79 84 86 74 81 79
151 151 199 258 257 124 222 274 287 265 180 197 201 209 219 228 236 176 165 141 126 122 122 128 126 125 110 92 92 81 56 28 26 36 56 71 86 99 103 98 89 91 94 101 104 99 87 74 79
143 150 219 288 354 140 270 292 287 250 227 217 204 207 216 218 199 181 165 154 153 150 146 143 145 146 144 128 120 122 114 75 36 23 51 63 83 99 111 113 113 111 107 102 107 114 109 94 68
181 185 199 210 3 35 14 327 310 289 281 245 209 208 210 204 195 190 181 177 164 163 168 167 162 155 145 122 100 81 64 45 29 22 25 25 59 89 102 117 119 120 125 135 138 139 138 149 60
220 215 183 169 113 296 61 300 294 286 309 286 254 226 219 214 196 190 187 183 183 183 173 160 157 150 143 132 127 123 120 132 230 256 353 16 46 76 107 126 130 130 130 135 154 142 146 143 153
198 131 120 121 132 360 353 209 291 322 287 270 251 231 226 211 197 194 193 189 182 170 165 162 150 142 138 141 143 129 120 150 109 64 52 36 29 40 83 131 134 136 137 144 148 143 153 157 166
126 79 60 52 71 309 252 186 284 257 241 260 245 230 222 209 196 192 184 169 161 153 153 153 149 156 159 150 145 151 154 151 125 95 80 18 12 9 25 140 153 166 167 172 182 165 161 168 167
95 95 37 357 1 260 266 199 253 261 247 234 231 224 211 189 183 175 167 167 166 163 164 163 161 172 176 161 165 173 171 169 177 187 188 193 233 262 264 203 185 196 203 195 182 160 172 173 167
166 144 161 200 227 276 305 236 257 276 282 260 219 186 168 173 183 181 179 175 174 171 168 167 171 178 175 174 190 182 170 173 195 200 194 200 215 233 229 213 205 214 209 197 179 171 193 167 179
143 171 164 137 162 261 283 289 303 320 359 18 84 119 161 181 182 182 176 174 173 171 175 175 175 178 181 185 180 180 177 181 196 208 197 209 226 227 202 188 195 212 199 188 166 168 202 159 172
143 145 110 128 162 250 291 279 260 272 270 275 215 202 212 188 176 177 177 177 178 174 172 164 167 179 184 182 187 189 197 198 190 170 196 212 221 206 155 146 151 163 168 153 131 150 192 151 187
98 106 115 128 154 165 250 270 231 227 228 219 224 221 205 190 183 182 177 168 160 153 158 161 166 166 169 177 183 184 198 182 167 184 218 208 191 176 170 173 157 158 171 140 137 184 168 154 265
166 165 147 158 209 182 191 263 279 242 226 209 214 218 206 183 173 169 157 149 149 156 165 172 176 178 187 179 171 183 180 160 172 210 227 187 174 179 179 163 144 156 190 170 175 215 212 189 221
Height
1500 1500 1501 1502 1507 1519 1525 1522 1518 1518 1518 1519 1518 1518 1520 1522 1525 1530 1526 1522 1522 1521 1521 1520 1520 1519 1519 1519 1519 1519 1519 1519 1519 1519 1519 1519 1519 1519 1519 1519 1519 1518 1518 1517 1516 1515 1517 1520 1522
1501 1501 1503 1504 1517 1531 1530 1521 1520 1519 1519 1519 1520 1520 1521 1523 1524 1525 1524 1523 1523 1522 1522 1521 1521 1521 1520 1520 1520 1520 1520 1520 1520 1520 1520 1520 1520 1520 1520 1520 1520 1520 1520 1520 1519 1519 1520 1522 1523
1502 1503 1505 1509 1522 1530 1528 1521 1520 1519 1520 1520 1521 1522 1523 1525 1525 1525 1525 1524 1523 1523 1523 1522 1522 1522 1522 1521 1521 1521 1521 1521 1521 1521 1521 1521 1521 1521 1521 1521 1521 1522 1522 1522 1522 1522 1523 1524 1525
1503 1505 1508 1517 1525 1524 1522 1520 1520 1520 1521 1521 1522 1524 1525 1526 1526 1526 1525 1525 1525 1524 1524 1524 1523 1523 1523 1523 1523 1522 1523 1523 1523 1523 1523 1523 1523 1523 1523 1523 1523 1523 1524 1523 1524 1524 1525 1526 1526
1505 1507 1517 1526 1526 1523 1521 1520 1520 1521 1522 1523 1523 1526 1527 1528 1527 1527 1526 1526 1526 1526 1525 1525 1525 1525 1524 1524 1524 1524 1524 1524 1524 1524 1524 1524 1524 1524 1525 1525 1525 1525 1525 1525 1525 1526 1527 1527 1528
1507 1510 1527 1533 1528 1524 1522 1522 1522 1523 1524 1525 1525 1527 1528 1529 1528 1528 1528 1528 1528 1527 1527 1527 1526 1526 1526 1526 1526 1526 1526 1526 1526 1526 1526 1526 1526 1526 1526 1526 1527 1527 1527 1528 1528 1528 1529 1529 1529
1510 1517 1528 1530 1530 1527 1524 1523 1523 1524 1525 1526 1527 1528 1529 1529 1530 1530 1529 1529 1529 1529 1529 1528 1528 1528 1528 1528 1528 1528 1528 1528 1528 1528 1528 1528 1528 1528 1528 1528 1528 1529 1529 1529 1530 1530 1531 1531 1531
1510 1518 1527 1530 1530 1528 1524 1524 1525 1525 1527 1527 1528 1528 1529 1530 1530 1531 1531 1531 1531 1531 1531 1530 1530 1530 1530 1529 1530 1530 1530 1530 1530 1530 1530 1530 1530 1530 1530 1530 1530 1530 1530 1531 1531 1531 1532 1532 1533
1512 1523 1531 1529 1528 1527 1524 1525 1526 1527 1527 1528 1528 1529 1530 1531 1531 1531 1532 1532 1532 1532 1532 1532 1532 1532 1532 1531 1531 1532 1532 1532 1532 1532 1531 1531 1531 1531 1532 1532 1532 1532 1532 1532 1533 1533 1533 1534 1534
1514 1527 1526 1523 1523 1524 1525 1525 1526 1528 1528 1529 1530 1530 1531 1531 1532 1532 1533 1533 1533 1534 1534 1534 1534 1533 1533 1533 1533 1534 1534 1534 1534 1534 1533 1533 1533 1533 1533 1533 1533 1534 1534 1533 1534 1534 1535 1535 1535
1517 1523 1522 1522 1522 1524 1525 1526 1527 1528 1529 1529 1530 1530 1532 1532 1533 1533 1534 1534 1535 1535 1535 1535 1535 1535 1535 1535 1535 1535 1536 1536 1536 1535 1535 1535 1535 1535 1535 1535 1535 1535 1535 1535 1535 1536 1536 1537 1537
1519 1521 1521 1523 1523 1524 1526 1527 1528 1528 1529 1530 1530 1531 1532 1533 1534 1534 1535 1535 1536 1536 1536 1536 1536 1536 1536 1536 1537 1537 1537 1538 1537 1537 1537 1537 1537 1537 1537 1537 1537 1537 1537 1537 1537 1537 1538 1538 1539
1521 1523 1523 1524 1525 1525 1526 1528 1529 1529 1530 1530 1531 1532 1533 1534 1534 1535 1536 1537 1537 1537 1537 1538 1538 1538 1538 1538 1538 1538 1539 1539 1539 1539 1539 1539 1539 1538 1538 1538 1538 1538 1538 1539 1539 1539 1539 1540 1540
1523 1524 1525 1525 1526 1527 1528 1529 1530 1531 1531 1531 1532 1533 1534 1534 1535 1536 1537 1537 1538 1538 1539 1539 1539 1540 1540 1540 1540 1540 1540 1540 1540 1540 1540 1540 1540 1540 1540 1540 1540 1540 1540 1540 1540 1540 1540 1541 1541
1524 1526 1528 1527 1527 1528 1529 1533 1531 1531 1531 1532 1533 1534 1535 1535 1536 1536 1537 1538 1539 1539 1540 1540 1541 1541 1541 1541 1541 1542 1542 1542 1542 1542 1542 1542 1542 1541 1541 1541 1541 1541 1541 1541 1541 1541 1542 1542 1542
1527 1533 1538 1531 1529 1529 1533 1540 1531 1531 1531 1532 1533 1534 1535 1536 1536 1537 1538 1539 1540 1540 1541 1541 1542 1542 1542 1542 1543 1543 1543 1543 1543 1543 1544 1543 1543 1543 1543 1542 1542 1542 1542 1542 1542 1543 1543 1543 1542
1536 1542 1541 1536 1530 1530 1534 1538 1532 1531 1531 1532 1533 1534 1535 1536 1536 1538 1539 1539 1540 1541 1541 1542 1542 1543 1543 1543 1544 1544 1544 1544 1544 1544 1545 1545 1544 1544 1544 1544 1544 1544 1544 1544 1544 1544 1544 1543 1543
1542 1543 1542 1540 1534 1533 1535 1536 1532 1531 1531 1531 1532 1533 1534 1535 1536 1537 1539 1540 1541 1541 1542 1543 1543 1544 1544 1544 1544 1544 1545 1545 1545 1545 1546 1546 1545 1545 1545 1545 1545 1545 1545 1545 1545 1545 1545 1545 1544
1534 1539 1543 1539 1533 1535 1536 1536 1532 1530 1531 1531 1531 1532 1533 1534 1535 1537 1538 1539 1541 1541 1542 1543 1544 1544 1544 1545 1545 1545 1545 1545 1546 1546 1546 1546 1546 1546 1546 1546 1546 1546 1546 1546 1546 1546 1545 1545 1545
1534 1540 1541 1537 1532 1535 1537 1536 1531 1530 1529 1529 1530 1531 1531 1532 1534 1535 1537 1539 1540 1541 1542 1543 1544 1544 1545 1545 1546 1546 1546 1546 1547 1547 1547 1547 1547 1547 1547 1547 1547 1547 1547 1547 1546 1546 1546 1546 1546
1534 1538 1539 1539 1535 1535 1538 1539 1534 1529 1528 1528 1528 1529 1530 1531 1532 1534 1536 1537 1539 1541 1542 1543 1544 1545 1545 1546 1546 1546 1547 1547 1547 1547 1548 1548 1548 1548 1548 1548 1548 1547 1547 1547 1547 1547 1547 1547 1547
1537 1530 1532 1535 1542 1548 1543 1554 1538 1532 1529 1527 1527 1527 1528 1529 1531 1532 1534 1536 1538 1540 1542 1543 1544 1545 1546 1546 1547 1547 1547 1547 1548 1548 1548 1548 1548 1548 1548 1548 1548 1548 1548 1547 1547 1547 1547 1547 1547
1530 1527 1531 1536 1542 1548 1546 1552 1544 1534 1532 1527 1525 1525 1526 1527 1529 1530 1533 1535 1537 1540 1542 1543 1544 1545 1546 1546 1547 1547 1547 1548 1548 1548 1549 1549 1549 1549 1549 1549 1548 1548 1548 1548 1548 1547 1547 1547 1547
1525 1531 1537 1543 1548 1558 1548 1553 1548 1537 1530 1525 1523 1523 1523 1525 1526 1529 1531 1534 1536 1539 1541 1542 1544 1545 1546 1546 1547 1547 1548 1548 1548 1548 1549 1549 1549 1549 1549 1549 1549 1549 1548 1548 1548 1548 1547 1547 1547
1528 1542 1558 1560 1565 1561 1547 1549 1544 1528 1524 1522 1521 1521 1522 1523 1524 1527 1529 1532 1535 1537 1539 1541 1543 1544 1545 1546 1547 1547 1547 1548 1548 1548 1548 1549 1549 1549 1549 1549 1549 1549 1549 1548 1548 1548 1547 1547 1547
1531 1538 1557 1564 1566 1560 1548 1550 1536 1523 1521 1520 1519 1520 1521 1522 1523 1525 1528 1530 1533 1536 1538 1540 1542 1543 1545 1545 1546 1547 1547 1547 1548 1548 1548 1548 1548 1548 1548 1548 1548 1548 1548 1548 1548 1547 1547 1547 1547
1532 1537 1537 1551 1555 1560 1554 1543 1530 1521 1520 1519 1519 1519 1520 1521 1523 1524 1527 1529 1532 1534 1537 1539 1541 1542 1544 1545 1546 1546 1547 1547 1547 1548 1548 1548 1548 1548 1548 1548 1548 1548 1548 1547 1547 1547 1547 1546 1546
1525 1532 1543 1551 1561 1564 1554 1547 1541 1526 1523 1521 1520 1519 1520 1521 1522 1524 1526 1528 1531 1533 1536 1538 1540 1541 1543 1544 1545 1545 1546 1547 1547 1547 1547 1547 1547 1547 1547 1547 1547 1547 1547 1547 1546 1546 1546 1546 1545
1530 1534 1539 1548 1551 1561 1561 1550 1525 1522 1520 1520 1519 1519 1520 1521 1522 1524 1526 1528 1530 1532 1535 1537 1538 1540 1541 1542 1543 1544 1545 1546 1546 1546 1546 1546 1546 1546 1546 1546 1546 1546 1546 1546 1545 1545 1545 1545 1544
1524 1529 1537 1546 1550 1553 1556 1547 1518 1517 1517 1517 1518 1519 1519 1520 1522 1523 1525 1527 1529 1531 1533 1535 1537 1538 1539 1541 1542 1543 1543 1544 1544 1545 1545 1545 1545 1545 1545 1545 1545 1545 1544 1544 1544 1544 1544 1543 1543